AirNav   Air Wisconsin pilot careers
 
 1315 users online  

KNGU Norfolk Naval Station (Chambers Field)
Norfolk, Virginia, USA

GOING TO NORFOLK?


FAA INFORMATION EFFECTIVE 28 FEBRUARY 2019

Location

FAA Identifier: NGU
Lat/Long: 36-56-14.8838N / 076-17-21.4006W
36-56.248063N / 076-17.356677W
36.9374677 / -76.2892779
(estimated)
Elevation: 14.8 ft. / 4.5 m (surveyed)
Variation: 10W (1990)
Time zone: UTC -5 (UTC -4 during Daylight Saving Time)
Zip code: 23503

Airport Operations

Airport use: Private use. Permission required prior to landing
Activation date: 04/1943
Control tower: yes
ARTCC: WASHINGTON CENTER
FSS: LEESBURG FLIGHT SERVICE STATION
NOTAMs facility: NGU (NOTAM-D service available)
Attendance: CONTINUOUS
Segmented circle: no
Lights: AVBL ONLY DURING HRS OF OPERATION.
Beacon: white-white-green (lighted military airport)
Operates sunset to sunrise.

Airport Communications

ATIS: 118.425 342.0
CHAMBERS GROUND: 121.8 370.85
CHAMBERS TOWER: 124.3 379.15
NORFOLK APPROACH: 118.9(010-310)
CLEARANCE DELIVERY: 120.7 339.8
AMC/ATOC: 130.65 349.5
BASE OPS: 134.1 268.8
EMERG: 121.5 243.0
NAVY NORFOLK HELI GND: 298.95
NAVY NORFOLK HELI TWR: 290.5
NAVYNORFOLK HELI TWR: 126.375
PMSV METRO: 271.6
RADAR: 119.2 134.1 263.6 302.0 309.2 346.8
WX ASOS at ORF (5 nm SE): PHONE 757-460-9348
WX AWOS-3PT at PVG (12 nm SW): 118.375 (757-465-2175)
WX ASOS at NTU (14 nm SE): PHONE DSN 433-3619 or 757-433-3619
WX ASOS at PHF (15 nm NW): PHONE 757-874-3682
WX AWOS-3 at CPK (16 nm S): 123.675 (757-204-4290)
  • NOTIFY CHAMBERS OPNS ON FREQ 268.8 ON ALL VIP FLIGHTS 15 MIN PRIOR TO ARRIVAL.
  • ALL RADAR FREQUENCIES ARE ON REQUEST.

Nearby radio navigation aids

VOR radial/distance  VOR name  Freq  Var
ORFr310/5.1NORFOLK VORTAC116.9007W
CCVr220/28.3CAPE CHARLES VORTAC112.2010W
HCMr154/36.7HARCUM VORTAC108.8007W
FKNr078/37.2FRANKLIN VORTAC110.6009W

 
NDB name  Hdg/Dist  Freq  Var  ID
INGLE352/6.132909WOR --- .-.
WAKEFIELD106/34.227411WAKQ .- -.- --.-

Airport Services

Bottled oxygen: NONE
Bulk oxygen: HIGH/LOW

Runway Information

Runway 10/28

Dimensions: 8370 x 200 ft. / 2551 x 61 m
Surface: asphalt/grooved
Weight bearing capacity: 
PCN 80 /R/B/W/T
Runway edge lights: high intensity
RUNWAY 10  RUNWAY 28
Latitude: 36-56.247967N36-56.248162N
Longitude: 076-18.215905W076-16.497447W
Elevation: 13.2 ft.12.5 ft.
Traffic pattern: leftright
Runway heading: 100 magnetic, 090 true280 magnetic, 270 true
Displaced threshold: 299 ft.995 ft.
Declared distances: TORA:8370 LDA:8071TORA:8370 LDA:7375
Visual slope indicator: 4-light PAPI on right (3.00 degrees glide path)4-light PAPI on right (3.00 degrees glide path)
Approach lights: ALSF2: standard 2,400 foot high intensity approach lighting system with centerline sequenced flashers (category II or III)
OLS RYS 10 & 28.
SSALS: simplified short approach lighting system
Runway end identifier lights: yesyes
Centerline lights: yesyes
Touchdown point: yes, lightedyes, lighted
Instrument approach: ILS/DME

Airport Ownership and Management from official FAA records

Ownership: U.S. Navy
Owner: U.S. NAVY
OCEANOGRAPHIC OFC-CODE 3142
WASHINGTON, DC 20373
Manager: COMMANDING OFFICER
NAVAL AIR STATION
NORFOLK, VA 23511

Additional Remarks

E60-28 HOOK E28 (B) (1062').
E60-10 HOOK E28(B) (1500').
AOE.
CAUTION: EXTV FISH SPOTTER ACFT ACT (SENG GENERAL AVIATION ACFT) UPWARDS FR 1500 FT OVER CHESAPEAKE BAY AND ADJ COASTAL WATERS. EXTV VFR TFC OPR W OF CHAMBERS CLASS D AND NORFOLK CLASS C AIRSPACE. BIRD HAZ.
TFC PAT: RGT TFC RWY 28. BASIC F/W/VFR MIN 1000' AND 3 NM. HELIPORT RWY 09/27.
NS ABTMT: NO PRACTICE APCH 0400-1200Z++ MON-SAT; 0400-1800Z++ SUN. OT BY NOTAM. NO COPTER OVFT WILLOUGHBY SPIT EXC VIA PT XRAY (CHAMBERS TACAN R-042/1.5 DME) OR PT YANKEE (CHAMBERS TACAN R-009/1.8 DME) AT 500'.
CSTMS/AG/IMG: CSTMS AVBL WITH 2 HR PN. AG AVBL 1300-2400Z++ MON-FRI. IMG AVBL 1300-2100Z++ MON-FRI. AG/IMG AVBL OT ON OVERTIME BASIS ONLY, PRIOR ARNG RQR.
MISC: RY 10/28 GROOVED.
CAUTION: ARRIVING/DEPARTING TCAS EQUIPPED ACFT SHOULD EXPECT NUMEROUS TCAS ALERTS FROM SHIP TRANSPONDER HARBORED OR TRANSITING INTO/OUT OF THE CHESAPEAKE AND COASTAL WATERS.
ARRIVING/DEPARTING TCAS EQUIPED ACFT SHOULD EXPECT NUMEROUS TCAS ALERTS FROM SHIP TRANSPONDER OR TRANSMITTING INTO/OUT OF THE CHESAPEAKE AND COASTAL WATERS.
CAUTION - DO NOT MISTAKE NORFOLK INTL 5 NM SE FOR CHAMBERS FIELD, WHILE INBD ON TACAN/RNAV RY 28 APCHS. CHAMBERS FIELD HAS A SINGLE RY; NORFOLK INTL HAS INTERSECTING RYS.
RSTD - PPR FOR NON CHAMBERS FIELD BASED ACFT. DSN 262-3419/3429 C757-322-3419/3429.
AMC/ATOC DSN 564-4735/3922, C757-444-4735/3922. ACFT UTILIZING AMC TRML CTC ATOC/AMC TRML 15 MIN PRIOR ARR WITH LOAD RPT. ACFT OVERSEAS CTC AMC/ATOC VIA FONE PATCH 2 HR PRIOR ARR FOR CSTM. ALL OTHER ACFT, CTC BASE OPS 15 MIN PRIR ARR.
MISC- FLT PLANS FOR NS NORFOLK, CHAMBERS FLD, AND NAS OCEANA SHOULD BE FAXED TO DSN 565-9680, C757-445-9680, OR EMAILED TO KNGU.FLTPLNG.FCT@NAVY.MIL. TO CFM RECEIPT OF FLT PLANS CALL NS NORFOLK, CHAMBERS FLD FLT PLANNING SUPERVISOR AT DSN 262-3419/3429, C757-322-3419/3429.
A-GEAR: AVOID CNTRLINE LGT RWY 10/28 DUR CABLE ENGAGEMENT TO PREVENT TAILHOOK SKIP. DIST RWY 28 MEASURED FR DISPL THLD. E-28(B) IN RAISED POSN AT DEP END OF RWY NMLLY. SHORTFLD GEAR AVBL WITH 20 MIN PN.
JASU:(NC-10C) (NC-8A/A1) (NCPP-105 CTC AIR OPS DUTY OFFICER TO ENSURE AVBL.)
FUEL: NO TRAN COPTER HOT PIT WO PRIOR COORD WITH HOST SQUADRON. J5.
FLUID: ADI SP PRESAIR LHOX LOX.
OIL: UNAVBLE.
TRAN ALERT: LTD TRAN MAINT AVBL WKD ONLY 1200-2000Z++. TRAN MAINT UNAVBL OT. 2 HR PN RQR FOR LOX. LAVATORY SVC UNAVBL FOR C-130 ACFT. POTABLE WATER UNAVBL.
RSTD: TWY B CLSD S OF TWY F AND TWY D CLSD E OF TWY S UFN.

Instrument Procedures

NOTE: All procedures below are presented as PDF files. If you need a reader for these files, you should download the free Adobe Reader.

NOT FOR NAVIGATION. Please procure official charts for flight.
FAA instrument procedures published for use from 28 February 2019 at 0901Z to 28 March 2019 at 0900Z.

 
STARs - Standard Terminal Arrivals
DRONE TWO   2 pages: [1] [2] (251KB)
TERKS TWO   download (163KB)
 
IAPs - Instrument Approach Procedures
ILS OR LOC/DME RWY 10   download (171KB)
RNAV (GPS) RWY 10   download (127KB)
RNAV (GPS) RWY 28   download (134KB)
HI-TACAN RWY 10   download (121KB)
HI-TACAN RWY 28   download (132KB)
TACAN RWY 10   download (113KB)
TACAN RWY 28   download (121KB)
Radar Approach Procedures available   download (111KB)
 
Departure Procedures
CHAMBERS NINE (VECTOR)   2 pages: [1] [2] (218KB)
NOTE: Special Take-Off Minimums/Departure Procedures apply   download (220KB)

Other nearby airports with instrument procedures:

KORF - Norfolk International Airport (5 nm SE)
KLFI - Langley Air Force Base (9 nm N)
KPVG - Hampton Roads Executive Airport (12 nm SW)
KNTU - Oceana Naval Air Station (Apollo Soucek Field) (14 nm SE)
KPHF - Newport News/Williamsburg International Airport (15 nm NW)
KCPK - Chesapeake Regional Airport (16 nm S)
KFAF - Felker Army Airfield (19 nm NW)
 
Loc | Ops | Rwys | IFR | FBO | Links
Com | Nav | Svcs | Stats | Notes
Area around KNGU (Norfolk Naval Station (Chambers Field))
 
Road maps at: MapQuest Bing Google
 
Aerial photo
WARNING: Photo may not be current or correct
Aerial photo of KNGU (Norfolk Naval Station (Chambers Field))
Photo by David Newcomer
Photo taken 14-Mar-2012
from 5,500' altitude looking west-northwest.

Do you have a better or more recent aerial photo of Norfolk Naval Station (Chambers Field) that you would like to share? If so, please send us your photo.

 
Sectional chart

 
Airport diagram
Diagram of KNGU (Norfolk Naval Station (Chambers Field))
Download PDF
of official airport diagram from the FAA

 
Airport distance calculator
Flying to Norfolk Naval Station (Chambers Field)? Find the distance to fly.

From to KNGU

Sunrise and sunset
Times for 18-Mar-2019
 Local
(UTC-4)
 Zulu
(UTC)
Morning civil twilight06:4710:47
Sunrise07:1311:13
Sunset19:1423:14
Evening civil twilight19:4023:40

Current date and time
Zulu (UTC)  18-Mar-2019 14:28:25
Local (UTC-4)  18-Mar-2019 10:28:25
 
METAR
KNGU 
2nm SE 
181359Z 08010KT 10SM FEW080 BKN100 09/02 A3022 RMK AO2 SLP235 T00940022
KORF 
5nm SE 
181351Z 10007KT 10SM BKN100 11/02 A3021 RMK AO2 SLP230 T01060022 $
KLFI 
9nm NW 
181356Z AUTO 11010KT 10SM OVC080 09/03 A3021 RMK AO2 SLP237 T00900026 $
KPVG 
12nm SW 
181356Z AUTO 09007KT 10SM CLR 10/02 A3022 RMK AO2 SLP234 T01000017
KNTU 
15nm SE 
181356Z 07009KT 10SM SCT100 09/02 A3022 RMK AO2 SLP235 T00940017 PNO $
KPHF 
15nm NW 
181354Z 08008KT 10SM OVC090 08/03 A3022 RMK AO2 SLP235 T00830028
KCPK 
16nm S 
181415Z AUTO 09007KT 7SM SCT100 10/02 A3021 RMK AO2 T00990016
KNFE 
16nm SE 
181356Z AUTO 09008KT 10SM FEW100 12/05 A3022 RMK AO2 SLP233 T01220050
KFAF 
19nm NW 
181356Z AUTO 07003KT 10SM OVC080 09/02 A3020 RMK AO2 SLP230 T00880017 $
TAF
KNGU 
2nm SE 
1810/1907 09004KT 9999 BKN100 BKN250 QNH3015INS FM181800 05011KT 9999 VCSH BKN030 OVC100 QNH3012INS TEMPO 1820/1900 8000 -SHRA OVC030 FM190000 03012KT 9999 NSW BKN050 QNH3020INS FM190600 02008KT 9999 FEW050 QNH3025INS T03/1810Z T11/1818Z AMD 1040 FN20004
KORF 
5nm SE 
181120Z 1812/1912 VRB04KT P6SM BKN120 FM181700 08008KT P6SM BKN080 FM182100 05010KT P6SM -SHRA BKN050 FM190000 03010KT P6SM BKN060 FM190200 03008KT P6SM SCT070
KLFI 
9nm NW 
181035Z 1810/1915 VRB06KT 9999 SCT080 BKN100 QNH3015INS BECMG 1816/1817 09012KT 9999 BKN025 620256 550505 QNH3020INS TEMPO 1820/1901 08015G25KT 8000 -SHRA BKN015 OVC020 BECMG 1900/1901 04012KT 8000 -SHRA BKN007 OVC015 QNH3033INS BECMG 1904/1905 02012KT 9999 NSW FEW015 FEW050 QNH3038INS TX09/1816Z TN03/1903Z
KNTU 
15nm SE 
1807/1907 VRB06KT 9999 SCT020 BKN060 QNH3011INS BECMG 1818/1820 36015G23KT 9999 VCSH BKN020 OVC035 QNH3012INS TEMPO 1820/1902 8000 -SHRA BKN020 OVC030 BECMG 1902/1904 9999 NSW SCT020 QNH3021INS T04/1810Z T11/1818Z FN00205
KPHF 
15nm NW 
181120Z 1812/1912 VRB03KT P6SM BKN100 FM181500 10006KT P6SM BKN080 FM182000 08007KT P6SM -SHRA BKN050 FM182300 06008KT P6SM BKN060 FM190100 02006KT P6SM SCT070
KFAF 
19nm NW 
181000Z 1810/1916 07009KT 9999 BKN080 QNH3013INS BECMG 1820/1821 04010G16KT 6000 -RA BKN015 QNH3012INS BECMG 1823/1824 03009KT 9999 NSW BKN020 QNH3023INS BECMG 1907/1908 02009KT 9999 FEW030 QNH3032INS TX12/1818Z TN02/1910Z
NOTAMs
Click for the latest NOTAMs
NOTAMs are issued by the DoD/FAA and will open in a separate window not controlled by AirNav.

 

 
 

Would you like to see your business listed on this page?

 If your business provides an interesting product or service to pilots, flight crews, aircraft, or users of the Norfolk Naval Station (Chambers Field), you should consider listing it here.  To start the listing process, click on the button below
 
Add a business
 

Other Pages about Norfolk Naval Station (Chambers Field)

Update a link
 
Copyright © AirNav, LLC. All rights reserved. Privacy Policy  Contact